Home   Weather   Huambo   Past weeks

Flag for Angola Past Weather in Huambo, Angola — Yesterday and Last 2 Weeks

75 °F

Passing clouds.

Feels Like: 75 °F
Forecast: 57 / 82 °F
Wind: 9 mph from Southwest

Location: Luanda Airport

Current Time: Oct 24, 2016 at 10:58:57 PM

Latest Report: Oct 24, 2016 at 10:00 PM

Visibility: N/A

Pressure: 29.83 "Hg (24.48 "Hg at 1720m altitude)

Humidity: 83%

Dew Point: 70 °F

Location of HuamboLocation

Past Weather in Huambo — Graph


Huambo Temperature Yesterday

Maximum temperature yesterday: 84 °F (at 2:00 PM)
Minimum temperature yesterday: 75 °F (at 12:00 AM)
Average temperature yesterday: 78 °F

High & Low Weather Summary for the Past Weeks

High86 °F (Oct 17, 2:00 PM)94% (Oct 10, 11:00 PM)29.98 "Hg (Oct 10, 11:00 PM)
Low72 °F (Oct 10, 11:00 PM)47% (Oct 15, 12:00 AM)29.71 "Hg (Oct 24, 5:00 PM)
Average78 °F79%29.88 "Hg
* Reported Oct 9 9:00 PM — Oct 24 9:00 PM, Huambo, Weather by CustomWeather, © 2016

Note: Actual official high and low records may vary slightly from our data, if they occured in-between our weather recording intervals... More about our weather records


Huambo Weather History for the Previous 24 Hours

Scroll right to see more
Time TempWeatherWind HumidityBarometerVisibility
9:00 PM
Mon, Oct 24
75 °FPassing clouds.10 mph83%29.80 "HgN/A
8:00 PM75 °FPassing clouds.9 mph83%29.80 "HgN/A
7:00 PM77 °FPassing clouds.12 mph79%29.77 "HgN/A
6:00 PM77 °FSunny.5 mph79%29.74 "Hg10 mi
5:00 PM79 °FSunny.7 mph74%29.71 "Hg10 mi
4:00 PM81 °FSunny.7 mph70%29.74 "Hg10 mi
3:00 PM82 °FSunny.6 mph66%29.74 "Hg10 mi
2:00 PM84 °FSunny.6 mph66%29.77 "Hg10 mi
1:00 PM84 °FSunny.5 mph66%29.80 "Hg10 mi
12:00 PM84 °FScattered clouds.5 mph66%29.86 "HgN/A
11:00 AM84 °FPartly sunny.5 mph66%29.86 "HgN/A
10:00 AM82 °FPartly sunny.2 mph66%29.89 "Hg6 mi
9:00 AM79 °FBroken clouds.5 mph79%29.92 "Hg6 mi
8:00 AM77 °FBroken clouds.5 mph83%29.92 "Hg6 mi
7:00 AM75 °FBroken clouds.6 mph89%29.92 "Hg4 mi
6:00 AM75 °FBroken clouds.3 mph83%29.89 "Hg5 mi
5:00 AM75 °FPassing clouds.6 mph89%29.86 "HgN/A
4:00 AM75 °FPassing clouds.5 mph89%29.86 "HgN/A
3:00 AM75 °FPassing clouds.3 mph89%29.86 "HgN/A
2:00 AM73 °FPassing clouds.3 mph89%29.86 "HgN/A
1:00 AM73 °FPassing clouds.5 mph89%29.86 "HgN/A
12:00 AM75 °FPassing clouds.6 mph83%29.89 "HgN/A
11:00 PM
Sun, Oct 23
75 °FPassing clouds.7 mph83%29.86 "HgN/A
10:00 PM75 °FPassing clouds.5 mph89%29.89 "HgN/A
Weather by CustomWeather, © 2016

See weather overviewHow to use our weather pages